Voltar ao catálogo

COSMOS 827

AtivoMilitarLEO
NORAD 8891·PAYLOAD·🇷🇺 Russia

Lançado Jun 15, 1976 de Plesetsk Cosmodrome

Loading…

Próximas Passagens (próximas 24 horas)

TLE

AtualizadoSource: Space-Track

Época: Sep 13, 2026, 10:15 UTC

1 08891U 76054C   26256.42770295 -.00000024  00000-0 -50188-4 0  9999
2 08891  74.0039  15.5209 0048386 146.8725 288.3884 12.53310511716608

Acompanhe COSMOS 827 em tempo real com AllMySat

Download on the App Store